Norwood, MA

4:23 PM EST on December 03, 2016 (GMT -0500)
Norwood Memorial

Weather History for KOWD - November, 2013

Change the Weather History Date:

Saturday, November 23, 2013

  Actual Average Record
Temperature  
Mean Temperature 39 °F -  
Max Temperature 48 °F 47 °F 69 °F (1999)
Min Temperature 30 °F 28 °F 14 °F (2000)
Degree Days  
Heating Degree Days 26    
Moisture  
Dew Point 25 °F    
Average Humidity 54    
Maximum Humidity 93    
Minimum Humidity 31    
Precipitation  
Precipitation 0.00 in - - ()
Sea Level Pressure  
Sea Level Pressure 29.84 in    
Wind  
Wind Speed 11 mph (WNW)    
Max Wind Speed 18 mph    
Max Gust Speed 34 mph    
Visibility 10 miles    
Events Snow    
Averages and records for this station are not official NWS values.
T = Trace of Precipitation, MM = Missing Value Source: NWS Daily Summary

Daily Weather History Graph

Daily Weather History Graph

Search for Another Location

Airport or City:

Trip Planner

Search our weather history database for the weather conditions in past years. The results will help you decide how hot, cold, wet, or windy it might be!

Date:

Astronomy

Nov. 23, 2013 Rise Set
Actual Time 6:44 AM EST 4:17 PM EST
Civil Twilight 6:14 AM EST 4:47 PM EST
Nautical Twilight 5:39 AM EST 5:22 PM EST
Astronomical Twilight 5:06 AM EST 5:55 PM EST
Moon 9:45 PM EST (11/23) 10:58 AM EST (11/23)
Length of Visible Light 10h 33m
Length of Day
9h 32m
Waning Gibbous, 70% of the Moon is Illuminated
Nov 23
Waning Gibbous
Nov 25
Last Quarter
Dec 2
New
Dec 9
First Quarter
Dec 17
Full

Hourly Weather History & Observations

Time (EST) Temp. Windchill Dew Point Humidity Pressure Visibility Wind Dir Wind Speed Gust Speed Precip Events Conditions
12:53 AM 46.9 °F - 45.0 °F 93% 29.81 in 6.0 mi WSW 3.5 mph - N/A   Overcast
1:53 AM 48.9 °F - 46.0 °F 90% 29.80 in 8.0 mi West 6.9 mph - N/A   Overcast
2:53 AM 48.0 °F - 41.0 °F 77% 29.79 in 10.0 mi WNW 10.4 mph 18.4 mph N/A   Partly Cloudy
3:53 AM 46.9 °F - 36.0 °F 66% 29.81 in 10.0 mi WNW 13.8 mph 17.3 mph N/A   Clear
4:53 AM 45.0 °F 38.9 °F 33.1 °F 63% 29.82 in 10.0 mi WNW 12.7 mph 23.0 mph N/A   Clear
5:53 AM 43.0 °F 36.0 °F 30.0 °F 60% 29.84 in 10.0 mi WNW 13.8 mph - N/A   Clear
6:53 AM 41.0 °F 34.7 °F 28.9 °F 62% 29.85 in 10.0 mi WNW 10.4 mph - N/A   Clear
7:53 AM 41.0 °F 33.9 °F 28.9 °F 62% 29.88 in 10.0 mi WNW 12.7 mph - N/A   Clear
8:53 AM 43.0 °F 34.8 °F 28.9 °F 58% 29.90 in 10.0 mi NW 18.4 mph 25.3 mph N/A   Clear
9:53 AM 44.1 °F 36.8 °F 26.1 °F 49% 29.90 in 10.0 mi WNW 16.1 mph 27.6 mph N/A   Clear
10:53 AM 45.0 °F 37.6 °F 24.1 °F 44% 29.89 in 10.0 mi West 17.3 mph 27.6 mph N/A   Clear
11:53 AM 46.0 °F 39.0 °F 21.9 °F 39% 29.86 in 10.0 mi West 17.3 mph 23.0 mph N/A   Clear
12:53 PM 46.9 °F - 18.0 °F 32% 29.84 in 10.0 mi WNW 15.0 mph - N/A   Clear
1:53 PM 45.0 °F 38.5 °F 16.0 °F 31% 29.83 in 10.0 mi WNW 13.8 mph - N/A   Clear
2:53 PM 44.1 °F 36.5 °F 15.1 °F 31% 29.83 in 10.0 mi WNW 17.3 mph 26.5 mph N/A   Clear
3:53 PM 42.1 °F 34.5 °F 15.1 °F 34% 29.82 in 10.0 mi West 15.0 mph 25.3 mph N/A   Clear
4:53 PM 39.0 °F 31.4 °F 14.0 °F 36% 29.84 in 10.0 mi WNW 12.7 mph - N/A   Clear
5:53 PM 36.0 °F 29.0 °F 16.0 °F 44% 29.83 in 10.0 mi West 9.2 mph - N/A   Clear
6:53 PM 36.0 °F 28.0 °F 16.0 °F 44% 29.81 in 10.0 mi WNW 11.5 mph - N/A   Clear
7:53 PM 36.0 °F 29.0 °F 16.0 °F 44% 29.81 in 10.0 mi West 9.2 mph - N/A   Clear
8:53 PM 35.1 °F 27.4 °F 19.9 °F 54% 29.82 in 10.0 mi WNW 10.4 mph 20.7 mph N/A   Clear
9:53 PM 32.0 °F 20.8 °F 21.9 °F 66% 29.83 in 8.0 mi WNW 17.3 mph 34.5 mph 0.00 in Snow Light Snow
10:53 PM 30.9 °F 22.8 °F 17.1 °F 57% 29.82 in 10.0 mi West 9.2 mph - 0.00 in   Clear
11:53 PM 30.0 °F 18.3 °F 15.1 °F 54% 29.81 in 10.0 mi West 17.3 mph 25.3 mph N/A   Clear